{"data":{"norad_id":67469,"epoch":"2026-09-19T22:05:09.395232Z","epoch_age_seconds":122344,"freshness":"FRESH","line1":"1 67469U 26008AA  26262.92024763  .00005629  00000+0  21396-3 0  9994","line2":"2 67469  43.0014 188.6170 0001405 251.6737 108.3962 15.27576140 39276","mean_motion":15.2757614,"eccentricity":0.0001405,"inclination_deg":43.0014,"raan_deg":188.617,"arg_perigee_deg":251.6737,"mean_anomaly_deg":108.3962,"bstar":0.00021396,"rev_number":3927,"period_min":94.266986914315,"perigee_km":482.09665602219,"apogee_km":484.02465256305,"semimajor_km":6861.1976542926,"source":"CELESTRAK","updated_at":"2026-09-20T09:00:43.553581Z"}}